Salida, CO

10:20 PM MDT on September 30, 2016 (GMT -0600)
Salida

Weather History for KANK - February, 2014

Change the Weather History Date:

Friday, February 28, 2014

  Actual Average (KGUC) Record (KGUC)
Temperature  
Mean Temperature 43 °F -  
Max Temperature 50 °F 31 °F 46 °F (1999)
Min Temperature 36 °F 8 °F -18 °F (2013)
Degree Days  
Heating Degree Days 22    
Moisture  
Dew Point 19 °F    
Average Humidity 43    
Maximum Humidity 56    
Minimum Humidity 20    
Precipitation  
Precipitation 0.00 in - - ()
Sea Level Pressure  
Sea Level Pressure 29.90 in    
Wind  
Wind Speed 17 mph (WSW)    
Max Wind Speed 24 mph    
Max Gust Speed 36 mph    
Visibility 10 miles    
Events      
Averages and records for this station are not official NWS values.
T = Trace of Precipitation, MM = Missing Value Source: NWS Daily Summary

Daily Weather History Graph

Daily Weather History Graph

Search for Another Location

Airport or City:

Trip Planner

Search our weather history database for the weather conditions in past years. The results will help you decide how hot, cold, wet, or windy it might be!

Date:

Astronomy

Feb. 28, 2014 Rise Set
Actual Time 6:37 AM MST 5:56 PM MST
Civil Twilight 6:11 AM MST 6:22 PM MST
Nautical Twilight 5:40 AM MST 6:53 PM MST
Astronomical Twilight 5:09 AM MST 7:24 PM MST
Moon 5:54 AM MST (2/28) 5:36 PM MST (2/28)
Length of Visible Light 12h 11m
Length of Day
11h 18m
Waning Crescent, 0% of the Moon is Illuminated
Feb 28
Waning Crescent
Mar 1
New
Mar 8
First Quarter
Mar 16
Full
Mar 23
Last Quarter

Hourly Weather History & Observations

Time (MST) Temp. Windchill Dew Point Humidity Pressure Visibility Wind Dir Wind Speed Gust Speed Precip Events Conditions
12:15 AM 40.3 °F 31.0 °F 23.7 °F 52% 29.76 in 10.0 mi WSW 19.6 mph 31.1 mph N/A   Overcast
12:35 AM 39.2 °F 30.5 °F 24.4 °F 56% 29.77 in 10.0 mi WSW 16.1 mph 24.2 mph N/A   Overcast
12:55 AM 39.0 °F 29.0 °F 22.3 °F 51% 29.77 in 10.0 mi WSW 20.7 mph 28.8 mph N/A   Overcast
1:15 AM 38.7 °F 29.5 °F 21.9 °F 51% 29.77 in 10.0 mi WSW 17.3 mph 25.3 mph N/A   Overcast
1:35 AM 38.7 °F 28.8 °F 19.9 °F 47% 29.77 in 10.0 mi West 19.6 mph 26.5 mph N/A   Mostly Cloudy
1:55 AM 38.5 °F 28.9 °F 20.8 °F 49% 29.78 in 10.0 mi SW 18.4 mph 28.8 mph N/A   Mostly Cloudy
2:15 AM 37.8 °F 28.0 °F 21.4 °F 52% 29.77 in 10.0 mi SW 18.4 mph 31.1 mph N/A   Scattered Clouds
2:35 AM 37.8 °F 27.7 °F 21.9 °F 53% 29.78 in 10.0 mi SW 19.6 mph 31.1 mph N/A   Clear
2:55 AM 37.4 °F 26.9 °F 22.1 °F 54% 29.78 in 10.0 mi WSW 20.7 mph 27.6 mph N/A   Clear
3:15 AM 37.4 °F 29.8 °F 21.0 °F 52% 29.78 in 10.0 mi SW 11.5 mph 21.9 mph N/A   Scattered Clouds
3:35 AM 37.4 °F 28.2 °F 20.7 °F 51% 29.78 in 10.0 mi WSW 16.1 mph 32.2 mph N/A   Scattered Clouds
3:55 AM 37.6 °F 27.1 °F 21.0 °F 51% 29.78 in 10.0 mi WSW 20.7 mph 32.2 mph N/A   Clear
4:15 AM 37.8 °F 27.7 °F 20.7 °F 50% 29.80 in 10.0 mi WSW 19.6 mph 34.5 mph N/A   Scattered Clouds
4:35 AM 37.8 °F 27.7 °F 20.1 °F 49% 29.80 in 10.0 mi WSW 19.6 mph 29.9 mph N/A   Clear
4:55 AM 37.6 °F 28.1 °F 20.3 °F 50% 29.82 in 10.0 mi WSW 17.3 mph 34.5 mph N/A   Clear
5:15 AM 37.6 °F 28.1 °F 21.0 °F 51% 29.84 in 10.0 mi West 17.3 mph 26.5 mph N/A   Scattered Clouds
5:35 AM 37.6 °F 28.1 °F 20.7 °F 51% 29.86 in 10.0 mi West 17.3 mph 29.9 mph N/A   Clear
5:55 AM 37.4 °F 31.4 °F 20.3 °F 50% 29.86 in 10.0 mi West 8.1 mph - N/A   Scattered Clouds
6:15 AM 36.3 °F 30.1 °F 21.2 °F 54% 29.87 in 10.0 mi WSW 8.1 mph 17.3 mph N/A   Scattered Clouds
6:35 AM 36.7 °F 26.9 °F 21.0 °F 53% 29.87 in 10.0 mi WSW 17.3 mph 25.3 mph N/A   Clear
6:55 AM 37.6 °F 27.4 °F 21.2 °F 52% 29.88 in 10.0 mi WSW 19.6 mph 29.9 mph N/A   Clear
7:15 AM 37.8 °F 28.0 °F 21.7 °F 53% 29.90 in 10.0 mi West 18.4 mph 23.0 mph N/A   Clear
7:35 AM 39.2 °F 28.7 °F 20.8 °F 48% 29.91 in 10.0 mi WSW 23.0 mph 33.4 mph N/A   Clear
7:55 AM 40.1 °F 31.0 °F 20.1 °F 45% 29.93 in 10.0 mi WSW 18.4 mph 29.9 mph N/A   Clear
8:15 AM 40.8 °F 31.7 °F 17.6 °F 39% 29.94 in 10.0 mi WSW 19.6 mph 25.3 mph N/A   Clear
8:35 AM 41.9 °F 32.8 °F 17.6 °F 38% 29.95 in 10.0 mi WSW 20.7 mph 28.8 mph N/A   Clear
8:55 AM 42.1 °F 34.9 °F 17.1 °F 37% 29.95 in 10.0 mi WSW 13.8 mph 27.6 mph N/A   Clear
9:15 AM 42.8 °F 34.8 °F 15.3 °F 33% 29.96 in 10.0 mi West 17.3 mph 33.4 mph N/A   Clear
9:35 AM 42.8 °F 35.8 °F 15.8 °F 34% 29.96 in 10.0 mi West 13.8 mph 34.5 mph N/A   Scattered Clouds
9:55 AM 42.4 °F 34.1 °F 16.0 °F 34% 29.96 in 10.0 mi West 18.4 mph 28.8 mph N/A   Scattered Clouds
10:15 AM 43.7 °F 35.7 °F 15.4 °F 32% 29.97 in 10.0 mi WSW 18.4 mph 33.4 mph N/A   Scattered Clouds
10:35 AM 45.3 °F 37.6 °F 14.7 °F 29% 29.97 in 10.0 mi WSW 19.6 mph 32.2 mph N/A   Clear
10:55 AM 45.5 °F 37.8 °F 13.3 °F 27% 29.97 in 10.0 mi SW 19.6 mph 29.9 mph N/A   Clear
11:15 AM 45.1 °F 36.6 °F 12.6 °F 27% 29.96 in 10.0 mi WSW 23.0 mph 33.4 mph N/A   Clear
11:35 AM 45.5 °F 38.1 °F 11.1 °F 25% 29.96 in 10.0 mi SW 18.4 mph 33.4 mph N/A   Clear
11:55 AM 47.3 °F - 10.8 °F 23% 29.95 in 10.0 mi SW 24.2 mph 33.4 mph N/A   Clear
12:15 PM 48.2 °F - 10.4 °F 22% 29.95 in 10.0 mi SW 24.2 mph 35.7 mph N/A   Clear
12:35 PM 47.7 °F - 11.1 °F 23% 29.94 in 10.0 mi SW 24.2 mph 35.7 mph N/A   Clear
12:55 PM 47.8 °F - 11.5 °F 23% 29.93 in 10.0 mi West 11.5 mph 34.5 mph N/A   Clear
1:15 PM 50.4 °F - 11.1 °F 21% 29.93 in 10.0 mi SSW 12.7 mph 18.4 mph N/A   Scattered Clouds
1:35 PM 49.5 °F - 12.0 °F 22% 29.93 in 10.0 mi West 10.4 mph 20.7 mph N/A   Scattered Clouds
1:55 PM 49.3 °F - 10.6 °F 21% 29.93 in 10.0 mi SW 15.0 mph 23.0 mph N/A   Scattered Clouds
2:15 PM 49.8 °F - 9.7 °F 20% 29.93 in 10.0 mi SW 10.4 mph 21.9 mph N/A   Mostly Cloudy
2:35 PM 50.2 °F - 11.1 °F 21% 29.92 in 10.0 mi WNW 13.8 mph 26.5 mph N/A   Scattered Clouds
2:55 PM 49.3 °F - 13.5 °F 24% 29.93 in 10.0 mi SW 6.9 mph 28.8 mph N/A   Scattered Clouds
3:15 PM 49.3 °F - 15.4 °F 26% 29.94 in 10.0 mi WSW 12.7 mph 24.2 mph N/A   Mostly Cloudy
3:35 PM 46.2 °F 39.8 °F 18.5 °F 33% 29.93 in 10.0 mi WNW 15.0 mph 28.8 mph N/A   Scattered Clouds
3:55 PM 45.9 °F 42.9 °F 18.9 °F 34% 29.93 in 10.0 mi SW 5.8 mph 23.0 mph N/A   Scattered Clouds
4:15 PM 45.0 °F 40.1 °F 19.4 °F 36% 29.94 in 10.0 mi SSW 9.2 mph 29.9 mph N/A   Scattered Clouds
4:35 PM 44.6 °F 36.6 °F 19.8 °F 37% 29.95 in 10.0 mi WSW 19.6 mph 25.3 mph N/A   Scattered Clouds
4:55 PM 43.7 °F 37.3 °F 19.8 °F 38% 29.96 in 10.0 mi SW 12.7 mph 20.7 mph N/A   Clear
5:15 PM 41.9 °F 36.3 °F 20.1 °F 42% 29.95 in 10.0 mi SW 9.2 mph 19.6 mph N/A   Clear
5:35 PM 41.2 °F 35.5 °F 20.8 °F 44% 29.93 in 10.0 mi SW 9.2 mph - N/A   Scattered Clouds
5:55 PM 40.1 °F 34.1 °F 21.2 °F 47% 29.93 in 10.0 mi SW 9.2 mph - N/A   Scattered Clouds
6:15 PM 39.6 °F 34.0 °F 23.0 °F 52% 29.93 in 10.0 mi West 8.1 mph - N/A   Clear
6:35 PM 40.3 °F 35.5 °F 22.1 °F 48% 29.93 in 10.0 mi WSW 6.9 mph - N/A   Clear
6:55 PM 41.0 °F 33.9 °F 22.1 °F 47% 29.95 in 10.0 mi West 12.7 mph 16.1 mph N/A   Clear
7:15 PM 40.6 °F 35.4 °F 24.4 °F 53% 29.95 in 10.0 mi West 8.1 mph - N/A   Scattered Clouds
7:35 PM 39.7 °F 31.2 °F 24.8 °F 55% 29.95 in 10.0 mi SW 16.1 mph 21.9 mph N/A   Scattered Clouds
7:55 PM 41.0 °F 32.8 °F 25.3 °F 54% 29.95 in 10.0 mi SW 16.1 mph 24.2 mph N/A   Scattered Clouds
8:15 PM 39.4 °F 33.8 °F 24.8 °F 56% 29.93 in 10.0 mi WNW 8.1 mph - N/A   Scattered Clouds
8:35 PM 41.2 °F 33.4 °F 23.7 °F 50% 29.93 in 10.0 mi SSW 15.0 mph 19.6 mph N/A   Clear
8:55 PM 42.1 °F 33.9 °F 23.7 °F 48% 29.94 in 10.0 mi South 17.3 mph 21.9 mph N/A   Scattered Clouds
9:15 PM 42.1 °F 33.6 °F 23.9 °F 49% 29.93 in 10.0 mi South 18.4 mph 23.0 mph N/A   Mostly Cloudy
9:35 PM 40.1 °F 31.3 °F 24.1 °F 53% 29.92 in 10.0 mi SSW 17.3 mph 21.9 mph N/A   Scattered Clouds
9:55 PM 41.0 °F 35.8 °F 24.3 °F 51% 29.93 in 10.0 mi SW 8.1 mph - N/A   Clear
10:15 PM 41.0 °F 32.8 °F 24.6 °F 52% 29.93 in 10.0 mi SSW 16.1 mph 24.2 mph N/A   Clear
10:35 PM 40.8 °F 35.0 °F 24.4 °F 52% 29.93 in 10.0 mi SSW 9.2 mph 17.3 mph N/A   Clear
10:55 PM 41.0 °F 34.3 °F 24.4 °F 52% 29.93 in 10.0 mi SSW 11.5 mph 18.4 mph N/A   Clear
11:15 PM 40.8 °F 34.5 °F 24.8 °F 53% 29.92 in 10.0 mi South 10.4 mph 25.3 mph N/A   Clear
11:35 PM 40.6 °F 33.4 °F 25.2 °F 54% 29.92 in 10.0 mi South 12.7 mph 24.2 mph N/A   Clear
11:55 PM 40.8 °F 34.1 °F 24.8 °F 53% 29.92 in 10.0 mi South 11.5 mph 17.3 mph N/A   Clear